Location: Unspecified
(0.0000°N, 0.0000°E)
Time: 17:25:14
(UTC+00:00)

Kosmos-2004 - Visible Passes

Search period start: 17 May 2026 00:00
Search period end: 27 May 2026 00:00
Orbit: 969 x 1012 km, 83.0° (Epoch: 17 May)

Date Brightness Start Highest point End Pass type
(mag) Time Alt. Az. Time Alt. Az. Time Alt. Az.
17 May 8.0 03:46:34 10° SE 03:51:28 24° E 03:56:20 10° NE visible
17 May 7.0 05:31:51 10° SW 05:36:49 26° W 05:41:49 10° NNW visible
18 May 6.5 04:15:07 10° S 04:21:13 60° E 04:27:20 10° NNE visible
19 May 6.0 04:44:55 10° SSW 04:50:58 56° W 04:57:03 10° N visible
20 May 7.8 03:30:14 10° SSE 03:35:22 27° E 03:40:30 10° NE visible
20 May 7.1 05:16:01 10° SW 05:20:44 23° W 05:25:28 10° NW visible
21 May 6.2 04:00:42 20° S 04:05:08 67° E 04:11:18 10° N visible
22 May 8.6 02:47:33 10° ESE 02:49:31 11° E 02:51:28 10° ENE visible
22 May 6.1 04:31:33 26° SSW 04:34:53 50° W 04:40:53 10° NNW visible
23 May 7.5 03:17:13 25° SE 03:19:17 30° E 03:24:38 10° NNE visible
23 May 7.2 05:02:16 17° WSW 05:04:39 20° W 05:09:05 10° NW visible
24 May 6.0 03:47:52 59° SSE 03:49:01 75° E 03:55:15 10° N visible
25 May 8.5 02:33:23 13° E 02:33:25 13° E 02:36:13 10° ENE visible
25 May 6.2 04:18:25 45° W 04:18:47 45° W 04:24:41 10° NNW visible
26 May 7.4 03:03:51 33° E 03:03:51 33° E 03:08:43 10° NNE visible
26 May 7.3 04:48:54 18° W 04:48:54 18° W 04:52:40 10° NW visible
